Regional Weather Roundup
Issued by NWS

Home | Current Version | Previous Version | Text Only | Print | Product List | Glossary On
Versions: 1 2 3 4 5 6 7 8 9 10 11 12 13 14 15 16 17 18 19 20 21 22 23 24 25 26 27 28 29 30 31 32 33 34 35 36 37 38 39 40 41 42 43 44 45 46 47 48 49 50
000
ASUS44 KJAN 250303
RWRMS

MISSISSIPPI HOURLY WEATHER ROUNDUP
NATIONAL WEATHER SERVICE JACKSON MS
1000 PM CDT SUN JUL 24 2016

NOTE: "FAIR: INDICATES FEW OR NO CLOUDS BELOW 12,000 FEET WITH NO
SIGNIFICANT WEATHER AND/OR OBSTRUCTIONS TO VISIBILITY.

MSZ001>002-007>008-010>013-018>021-025>028-034>036-250400-
NORTHWEST MISSISSIPPI

CITY           SKY/WX    TMP DP  RH WIND       PRES   REMARKS
CLEVELAND      FAIR      77  77 100 S3        29.96S
GREENWOOD      CLOUDY    81  73  76 CALM      29.97F
GREENVILLE     CLOUDY    76  73  91 S7        29.96R
OXFORD         FAIR      77  75  94 NE3       30.02R
WINONA         FAIR      75  74  99 CALM      29.99S
$$

MSZ003>006-009-014>017-022>024-029>033-037>039-250400-
NORTHEAST MISSISSIPPI

CITY           SKY/WX    TMP DP  RH WIND       PRES   REMARKS
ABERDEEN       FAIR      81  63  54 CALM      30.00S HAZE
COLUMBUS AFB   MOCLDY    79  76  91 CALM      29.99R
GOLDN TRIANGLE MOCLDY    79  72  78 CALM      29.99R
TUPELO         CLOUDY    81  76  84 CALM      30.00R
$$

MSZ040-058-250400-
CENTRAL MISSISSIPPI

CITY           SKY/WX    TMP DP  RH WIND       PRES   REMARKS
JACKSON INTL   CLOUDY    78  74  87 SE7       30.00R
JACKSON HAWKNS CLOUDY    79  76  90 CALM      29.99R
MADISON        FAIR      77  73  88 CALM      29.99S
MERIDIAN KEY   PTCLDY    79  75  87 CALM      30.02R
MERIDIAN NAS   CLEAR     83  68  60 SW3       30.02R
VICKSBURG VKS  CLEAR     79  75  89 CALM      29.99R
$$

MSZ059>079-250400-
SOUTH MISSISSIPPI

CITY           SKY/WX    TMP DP  RH WIND       PRES   REMARKS
BROOKHAVEN     FAIR     N/A N/A N/A CALM      30.01R
COLUMBIA       FAIR      75  73  94 CALM      30.03S
HATTIESBURG    CLOUDY    77  74  90 CALM      29.99F
MCCOMB         CLOUDY    76  73  91 E3        30.00S
NATCHEZ        CLOUDY    79  72  78 SE3       30.00R
PINE BELT      CLOUDY    55 N/A N/A CALM      30.01S
$$

MSZ080>082-250400-
COASTAL MISSISSIPPI

CITY           SKY/WX    TMP DP  RH WIND       PRES   REMARKS
BILOXI         MOCLDY    84  78  81 E1        29.97S HX  94
PASCAGOULA     MOCLDY    78  78 100 CALM      29.99R
GULFPORT       CLOUDY    81  76  84 CALM      29.98R
$$

LAZ007>009-015>016-023>026-250400-
NORTHEAST LOUISIANA

CITY           SKY/WX    TMP DP  RH WIND       PRES   REMARKS
BASTROP        FAIR      74  74  98 CALM      29.98S FOG
TALLULAH/VBURG CLOUDY    79  76  90 CALM      29.99R
VIDALIA        MOCLDY    80  75  83 CALM      30.02R
$$



USA.gov is the U.S. government's official web portal to all federal, state and local government web resources and services.